Year,Month,Day,Hour,Minute,Value (Times are PST for temperature in C)
2013,11,13,01,23,9.60
2013,11,13,01,24,9.50
2013,11,13,01,25,9.50
2013,11,13,01,26,9.50
2013,11,13,01,27,9.50
2013,11,13,01,28,9.50
2013,11,13,01,29,9.60
2013,11,13,01,30,9.60
2013,11,13,01,31,9.60
2013,11,13,01,32,9.60
2013,11,13,01,33,9.60
2013,11,13,01,34,9.60
2013,11,13,01,35,9.60
2013,11,13,01,36,9.60
2013,11,13,01,37,9.60
2013,11,13,01,38,9.60
2013,11,13,01,39,9.60
2013,11,13,01,40,9.60
2013,11,13,01,41,9.60
2013,11,13,01,42,9.60
2013,11,13,01,43,9.60
2013,11,13,01,44,9.60
2013,11,13,01,45,9.60
2013,11,13,01,46,9.60
2013,11,13,01,47,9.70
2013,11,13,01,48,9.70
2013,11,13,01,49,9.70
2013,11,13,01,50,9.70
2013,11,13,01,51,9.70
2013,11,13,01,52,9.80
2013,11,13,01,53,9.80
2013,11,13,01,54,9.80
2013,11,13,01,55,9.80
2013,11,13,01,56,9.80
2013,11,13,01,57,9.80
2013,11,13,01,58,9.80
2013,11,13,01,59,9.80
2013,11,13,02,00,9.80
2013,11,13,02,01,9.80
2013,11,13,02,02,9.90
2013,11,13,02,03,9.90
2013,11,13,02,04,9.90
2013,11,13,02,05,9.90
2013,11,13,02,06,9.90
2013,11,13,02,07,9.90
2013,11,13,02,08,9.90
2013,11,13,02,09,9.90
2013,11,13,02,10,9.90
2013,11,13,02,11,9.90
2013,11,13,02,12,9.90
2013,11,13,02,13,9.90
2013,11,13,02,14,9.90
2013,11,13,02,15,9.90
2013,11,13,02,16,9.90
2013,11,13,02,17,9.90
2013,11,13,02,18,9.90
2013,11,13,02,19,9.90
2013,11,13,02,20,9.90
2013,11,13,06,20,9.80
2013,11,13,06,21,9.80
2013,11,13,06,22,9.80
2013,11,13,06,23,9.80
2013,11,13,06,24,9.80
2013,11,13,06,25,9.80
2013,11,13,06,26,9.70
2013,11,13,06,27,9.70
2013,11,13,06,28,9.70
2013,11,13,06,29,9.70
2013,11,13,06,30,9.70
2013,11,13,06,31,9.70
2013,11,13,06,32,9.70
2013,11,13,06,33,9.70
2013,11,13,06,34,9.70
2013,11,13,06,35,9.70
2013,11,13,06,36,9.70
2013,11,13,06,37,9.70
2013,11,13,06,38,9.70
2013,11,13,06,39,9.70
2013,11,13,06,40,9.70
2013,11,13,06,41,9.60
2013,11,13,06,42,9.60
2013,11,13,06,43,9.70
2013,11,13,06,44,9.70
2013,11,13,06,45,9.70
2013,11,13,06,46,9.70
2013,11,13,06,47,9.70
2013,11,13,06,48,9.70
2013,11,13,06,49,9.80
2013,11,13,06,50,9.80
2013,11,13,06,51,9.80
2013,11,13,06,52,9.80
2013,11,13,06,53,9.80
2013,11,13,06,54,9.80
2013,11,13,06,55,9.80
2013,11,13,06,56,9.80
2013,11,13,06,57,9.80
2013,11,13,06,58,9.70
2013,11,13,06,59,9.70
2013,11,13,07,00,9.70
2013,11,13,07,01,9.70
2013,11,13,07,02,9.70
2013,11,13,07,03,9.70
2013,11,13,07,04,9.70
2013,11,13,07,05,9.70
2013,11,13,07,06,9.70
2013,11,13,07,07,9.70
2013,11,13,07,08,9.70
2013,11,13,07,09,9.70
2013,11,13,07,10,9.70
2013,11,13,07,11,9.70
2013,11,13,07,12,9.70
2013,11,13,07,13,9.70
2013,11,13,10,41,11.30
2013,11,13,10,42,11.30
2013,11,13,10,43,11.40
2013,11,13,10,44,11.40
2013,11,13,10,45,11.50
2013,11,13,10,46,11.60
2013,11,13,10,47,11.60
2013,11,13,10,48,11.60
2013,11,13,10,49,11.60
2013,11,13,10,50,11.60
2013,11,13,10,51,11.60
2013,11,13,10,52,11.60
2013,11,13,10,53,11.60
2013,11,13,10,54,11.60
2013,11,13,10,55,11.60
2013,11,13,10,56,11.60
2013,11,13,10,57,11.60
2013,11,13,10,58,11.60
2013,11,13,10,59,11.60
2013,11,13,11,00,11.70
2013,11,13,11,01,11.70
2013,11,13,11,02,11.70
2013,11,13,11,03,11.60
2013,11,13,11,04,11.60
2013,11,13,11,05,11.60
2013,11,13,11,06,11.60
2013,11,13,11,07,11.60
2013,11,13,11,08,11.60
2013,11,13,11,09,11.60
2013,11,13,11,10,11.60
2013,11,13,11,11,11.60
2013,11,13,11,12,11.60
2013,11,13,11,13,11.60
2013,11,13,11,14,11.60
2013,11,13,11,15,11.60
2013,11,13,11,16,11.60
2013,11,13,11,17,11.70
2013,11,13,11,18,11.70
2013,11,13,11,19,11.70
2013,11,13,11,20,11.70
2013,11,13,11,21,11.70
2013,11,13,11,22,11.70
2013,11,13,11,23,11.70
2013,11,13,11,24,11.70
2013,11,13,11,25,11.70
2013,11,13,11,26,11.80
2013,11,13,11,27,11.80
2013,11,13,11,28,11.80
2013,11,13,11,29,11.80
2013,11,13,11,30,11.80
2013,11,13,11,31,11.80
2013,11,13,11,32,11.80
2013,11,13,11,33,11.80
2013,11,13,11,34,11.80
2013,11,13,11,35,11.80
2013,11,13,11,36,11.90
2013,11,13,11,37,11.90
2013,11,13,11,38,11.90
2013,11,13,11,39,11.90
2013,11,13,11,40,12.00
2013,11,13,11,41,12.00
2013,11,13,11,42,12.00
2013,11,13,11,43,12.00
2013,11,13,11,44,12.00
2013,11,13,11,45,12.10
2013,11,13,11,46,12.10
2013,11,13,11,47,12.10
2013,11,13,11,48,12.10
2013,11,13,11,49,12.10
2013,11,13,11,50,12.10
2013,11,13,11,51,12.10
2013,11,13,11,52,12.10
2013,11,13,11,53,12.10
2013,11,13,11,54,12.10
2013,11,13,11,55,12.10
2013,11,13,11,56,12.10
2013,11,13,11,57,12.10
2013,11,13,11,58,12.10
2013,11,13,11,59,12.00
2013,11,13,12,00,12.00
2013,11,13,12,01,12.00
2013,11,13,12,02,12.00
2013,11,13,12,03,12.00
2013,11,13,12,04,12.00
2013,11,13,12,05,12.00
2013,11,13,12,06,12.00
2013,11,13,12,07,12.00
2013,11,13,12,08,12.00
2013,11,13,12,09,12.00
2013,11,13,12,10,12.00
2013,11,13,12,11,12.00
2013,11,13,12,12,12.00
2013,11,13,12,13,12.00
2013,11,13,12,14,12.00
2013,11,13,12,15,12.10
2013,11,13,12,16,12.10
2013,11,13,12,17,12.10
2013,11,13,12,18,12.10
2013,11,13,12,19,12.10
2013,11,13,12,20,12.10
2013,11,13,12,21,12.10
2013,11,13,12,22,12.10
2013,11,13,12,23,12.10
2013,11,13,12,24,12.10
2013,11,13,12,25,12.00
2013,11,13,12,26,12.00
2013,11,13,12,27,12.00
2013,11,13,12,28,12.00
2013,11,13,12,29,12.00
2013,11,13,12,30,12.00
2013,11,13,12,31,12.00
2013,11,13,12,32,12.10
2013,11,13,12,33,12.10
2013,11,13,12,34,12.10
2013,11,13,12,35,12.10
2013,11,13,12,36,12.10
2013,11,13,12,37,12.10
2013,11,13,12,38,12.10
2013,11,13,12,39,12.00
2013,11,13,12,40,12.00
2013,11,13,12,41,12.00
2013,11,13,12,42,12.00
2013,11,13,12,43,12.00
2013,11,13,12,44,12.00
2013,11,13,12,45,12.10
2013,11,13,12,46,12.10
2013,11,13,12,47,12.00
2013,11,13,12,48,12.00
2013,11,13,12,49,12.00
2013,11,13,12,50,12.00
2013,11,13,12,51,12.10
2013,11,13,12,52,12.00
2013,11,13,12,53,12.00
2013,11,13,12,54,12.10
2013,11,13,12,55,12.10
2013,11,13,12,56,12.10
2013,11,13,12,57,12.10
2013,11,13,12,58,12.10
2013,11,13,12,59,12.10
2013,11,13,13,00,12.10
2013,11,13,13,01,12.10
2013,11,13,13,02,12.10
2013,11,13,13,03,12.10
2013,11,13,13,04,12.10
2013,11,13,13,05,12.10
2013,11,13,13,06,12.10
2013,11,13,13,07,12.10
2013,11,13,13,08,12.10
2013,11,13,13,09,12.10
2013,11,13,13,10,12.10
2013,11,13,13,11,12.10
2013,11,13,13,12,12.10
2013,11,13,13,13,12.10
2013,11,13,13,14,12.10
2013,11,13,13,15,12.10
2013,11,13,13,16,12.10
2013,11,13,13,17,12.10
2013,11,13,13,18,12.10
2013,11,13,13,19,12.10
2013,11,13,13,20,12.10
2013,11,13,13,21,12.10
2013,11,13,13,22,12.10
2013,11,13,13,23,12.10
2013,11,13,13,24,12.10
2013,11,13,13,25,12.20
2013,11,13,13,26,12.20
2013,11,13,13,27,12.20
2013,11,13,13,28,12.30
2013,11,13,13,29,12.30
2013,11,13,13,30,12.30
2013,11,13,13,31,12.30
2013,11,13,13,32,12.30
2013,11,13,13,33,12.40
2013,11,13,13,34,12.40
2013,11,13,13,35,12.40
2013,11,13,13,36,12.40
2013,11,13,13,37,12.40
2013,11,13,13,38,12.40
2013,11,13,13,39,12.40
2013,11,13,13,40,12.40
2013,11,13,13,41,12.40
2013,11,13,13,42,12.40
2013,11,13,13,43,12.40
2013,11,13,13,44,12.40
2013,11,13,13,45,12.40
2013,11,13,13,46,12.40
2013,11,13,13,47,12.40
2013,11,13,13,48,12.50
2013,11,13,13,49,12.50
2013,11,13,13,50,12.50
2013,11,13,13,51,12.40
2013,11,13,13,52,12.40
2013,11,13,13,53,12.40
2013,11,13,13,54,12.40
2013,11,13,13,55,12.40
2013,11,13,13,56,12.40
2013,11,13,13,57,12.40
2013,11,13,13,58,12.40
2013,11,13,13,59,12.40
2013,11,13,14,00,12.40
2013,11,13,14,01,12.40
2013,11,13,14,02,12.40
2013,11,13,14,03,12.40
2013,11,13,14,04,12.40
2013,11,13,14,05,12.40
2013,11,13,14,06,12.40
2013,11,13,14,07,12.40
2013,11,13,14,08,12.30
2013,11,13,14,09,12.30
2013,11,13,14,10,12.30
2013,11,13,14,11,12.30
2013,11,13,14,12,12.30
2013,11,13,14,13,12.30
2013,11,13,14,14,12.30
2013,11,13,14,15,12.30
2013,11,13,14,16,12.30
2013,11,13,14,17,12.30
2013,11,13,14,18,12.30
2013,11,13,14,19,12.30
2013,11,13,14,20,12.30
2013,11,13,14,21,12.30
2013,11,13,14,22,12.30
2013,11,13,14,23,12.30
2013,11,13,14,24,12.30
2013,11,13,14,25,12.30
2013,11,13,14,26,12.30
2013,11,13,14,27,12.30
2013,11,13,14,28,12.30
2013,11,13,14,29,12.30
2013,11,13,14,30,12.30
2013,11,13,14,31,12.30
2013,11,13,14,32,12.30
2013,11,13,14,33,12.30
2013,11,13,14,34,12.30
2013,11,13,14,35,12.30
2013,11,13,14,36,12.30
2013,11,13,14,37,12.30
2013,11,13,14,38,12.30
2013,11,13,14,39,12.30
2013,11,13,14,40,12.30
2013,11,13,14,41,12.30
2013,11,13,14,42,12.30
2013,11,13,14,43,12.30
2013,11,13,14,44,12.30
2013,11,13,14,45,12.30
2013,11,13,14,46,12.20
2013,11,13,14,47,12.20
2013,11,13,14,48,12.20
2013,11,13,14,49,12.20
2013,11,13,14,50,12.20
2013,11,13,14,51,12.20
2013,11,13,14,52,12.10
2013,11,13,14,53,12.10
2013,11,13,14,54,12.10
2013,11,13,14,55,12.10
2013,11,13,14,56,12.10
2013,11,13,14,57,12.10
2013,11,13,14,58,12.10
2013,11,13,14,59,12.00
2013,11,13,15,00,12.00
2013,11,13,15,01,12.00
2013,11,13,15,02,12.00
2013,11,13,15,03,12.00
2013,11,13,15,04,12.00
2013,11,13,15,05,11.90
2013,11,13,15,06,11.90
2013,11,13,15,07,11.90
2013,11,13,15,08,11.90
2013,11,13,15,09,11.90
2013,11,13,15,10,11.90
2013,11,13,15,11,11.90
2013,11,13,15,12,11.90
2013,11,13,15,13,11.90
2013,11,13,15,14,11.90
2013,11,13,15,15,11.90
2013,11,13,15,16,11.90
2013,11,13,15,17,11.90
2013,11,13,15,18,11.90
2013,11,13,15,19,11.90
2013,11,13,15,20,11.90
2013,11,13,15,21,11.90
2013,11,13,15,22,11.90
2013,11,13,15,23,12.00
2013,11,13,15,24,12.00
2013,11,13,15,25,12.00
2013,11,13,15,26,12.00
2013,11,13,15,27,11.90
2013,11,13,15,28,11.90
2013,11,13,15,29,11.90
2013,11,13,15,30,11.90
2013,11,13,15,31,11.90
2013,11,13,15,32,11.80
2013,11,13,15,33,11.80
2013,11,13,15,34,11.80
2013,11,13,15,35,11.80
2013,11,13,15,36,11.80
2013,11,13,15,37,11.80
2013,11,13,15,38,11.80
2013,11,13,15,39,11.80
2013,11,13,15,40,11.80
2013,11,13,15,41,11.80
2013,11,13,15,42,11.80
2013,11,13,15,43,11.80
2013,11,13,15,44,11.80
2013,11,13,15,45,11.80
2013,11,13,15,46,11.80
2013,11,13,15,47,11.80
2013,11,13,15,48,11.80
2013,11,13,15,49,11.80
2013,11,13,15,50,11.80
2013,11,13,15,51,11.80
2013,11,13,15,52,11.80
2013,11,13,15,53,11.80
2013,11,13,15,54,11.80
2013,11,13,15,55,11.80
2013,11,13,15,56,11.80
2013,11,13,15,57,11.80
2013,11,13,15,58,11.80
2013,11,13,15,59,11.80
2013,11,13,16,00,11.70
2013,11,13,16,01,11.70
2013,11,13,16,02,11.70
2013,11,13,16,03,11.70
2013,11,13,16,04,11.70
2013,11,13,16,05,11.70
2013,11,13,16,06,11.70
2013,11,13,16,07,11.70
2013,11,13,16,08,11.60
2013,11,13,16,09,11.60
2013,11,13,16,10,11.60
2013,11,13,16,11,11.60
2013,11,13,16,12,11.50
2013,11,13,16,13,11.40
2013,11,13,16,14,11.40
2013,11,13,16,15,11.30
2013,11,13,16,16,11.30
2013,11,13,16,17,11.30
2013,11,13,16,18,11.20
2013,11,13,16,19,11.20
2013,11,13,16,20,11.20
2013,11,13,16,21,11.10
2013,11,13,16,22,11.10
2013,11,13,16,23,11.10
2013,11,13,16,24,11.10
2013,11,13,16,25,11.00
2013,11,13,16,26,11.00
2013,11,13,16,27,10.90
2013,11,13,16,28,10.90
2013,11,13,16,29,10.90
2013,11,13,16,30,10.90
2013,11,13,16,31,10.90
2013,11,13,16,32,10.80
2013,11,13,16,33,10.80
2013,11,13,16,34,10.80
2013,11,13,16,35,10.80
2013,11,13,16,36,10.80
2013,11,13,16,37,10.80
2013,11,13,16,38,10.80
2013,11,13,16,39,10.80
2013,11,13,16,40,10.80
2013,11,13,16,41,10.80
2013,11,13,16,42,10.80
2013,11,13,16,43,10.80
2013,11,13,16,44,10.80
2013,11,13,16,45,10.80
2013,11,13,16,46,10.70
2013,11,13,16,47,10.70
2013,11,13,16,48,10.70
2013,11,13,16,49,10.70
2013,11,13,16,50,10.70
2013,11,13,16,51,10.70
2013,11,13,16,52,10.70
2013,11,13,16,53,10.70
2013,11,13,16,54,10.70
2013,11,13,16,55,10.70
2013,11,13,16,56,10.70
2013,11,13,16,57,10.70
2013,11,13,16,58,10.70
2013,11,13,16,59,10.70
2013,11,13,17,00,10.70
2013,11,13,17,01,10.60
2013,11,13,17,02,10.60
2013,11,13,17,03,10.60
2013,11,13,17,04,10.60
2013,11,13,17,05,10.70
2013,11,13,17,06,10.60
2013,11,13,17,07,10.70
2013,11,13,17,08,10.60
2013,11,13,17,09,10.60
2013,11,13,17,10,10.60
2013,11,13,17,11,10.60
2013,11,13,17,12,10.60
2013,11,13,17,13,10.60
2013,11,13,17,14,10.60
2013,11,13,17,15,10.60
2013,11,13,17,16,10.60
2013,11,13,17,17,10.60
2013,11,13,17,18,10.60
2013,11,13,17,19,10.60
2013,11,13,17,20,10.60
2013,11,13,17,21,10.60
2013,11,13,17,22,10.60
2013,11,13,17,23,10.60
2013,11,13,17,24,10.60
2013,11,13,17,25,10.60
2013,11,13,17,26,10.60
2013,11,13,17,27,10.50
2013,11,13,17,28,10.50
2013,11,13,17,29,10.50
2013,11,13,17,30,10.50
2013,11,13,17,31,10.50
2013,11,13,17,32,10.50
2013,11,13,17,33,10.50
2013,11,13,17,34,10.50
2013,11,13,17,35,10.50
2013,11,13,17,36,10.50
2013,11,13,17,37,10.40
2013,11,13,17,38,10.40
2013,11,13,17,39,10.40
2013,11,13,17,40,10.40
2013,11,13,17,41,10.50
2013,11,13,17,42,10.50
2013,11,13,17,43,10.50
2013,11,13,17,44,10.50
2013,11,13,17,45,10.50
2013,11,13,17,46,10.40
2013,11,13,17,47,10.50
2013,11,13,17,48,10.50
2013,11,13,17,49,10.50
2013,11,13,17,50,10.50
2013,11,13,17,51,10.50
2013,11,13,17,52,10.50
2013,11,13,17,53,10.50
2013,11,13,17,54,10.50
2013,11,13,17,55,10.50
2013,11,13,17,56,10.60
2013,11,13,17,57,10.60
2013,11,13,17,58,10.60
2013,11,13,17,59,10.60
2013,11,13,18,00,10.60
2013,11,13,18,01,10.60
2013,11,13,18,02,10.60
2013,11,13,18,03,10.70
2013,11,13,18,04,10.70
2013,11,13,18,05,10.70
2013,11,13,18,06,10.70
2013,11,13,18,07,10.70
2013,11,13,18,08,10.70
2013,11,13,18,09,10.70
2013,11,13,18,10,10.80
2013,11,13,18,11,10.80
2013,11,13,18,12,10.80
2013,11,13,18,13,10.80
2013,11,13,18,14,10.80
2013,11,13,18,15,10.80
2013,11,13,18,16,10.80
2013,11,13,18,17,10.80
2013,11,13,18,18,10.80
2013,11,13,18,19,10.80
2013,11,13,18,20,10.80
2013,11,13,18,21,10.80
2013,11,13,18,22,10.80
2013,11,13,18,23,10.80
2013,11,13,18,24,10.80
2013,11,13,18,25,10.80
2013,11,13,18,26,10.80
2013,11,13,18,27,10.80
2013,11,13,18,28,10.70
2013,11,13,18,29,10.70
2013,11,13,18,30,10.70
2013,11,13,18,31,10.70
2013,11,13,18,32,10.70
2013,11,13,18,33,10.70
2013,11,13,18,34,10.70
2013,11,13,18,35,10.70
2013,11,13,18,36,10.70
2013,11,13,18,37,10.70
2013,11,13,18,38,10.70
2013,11,13,18,39,10.70
2013,11,13,18,40,10.70
2013,11,13,18,41,10.70
2013,11,13,18,42,10.80
2013,11,13,18,43,10.80
2013,11,13,18,44,10.80
2013,11,13,18,45,10.70
2013,11,13,18,46,10.70
2013,11,13,18,47,10.70
2013,11,13,18,48,10.70
2013,11,13,18,49,10.70
2013,11,13,18,50,10.70
2013,11,13,18,51,10.70
2013,11,13,18,52,10.70
2013,11,13,18,53,10.60
2013,11,13,18,54,10.60
2013,11,13,18,55,10.60
2013,11,13,18,56,10.60
2013,11,13,18,57,10.60
2013,11,13,18,58,10.60
2013,11,13,18,59,10.60
2013,11,13,19,00,10.50
2013,11,13,19,01,10.50
2013,11,13,19,02,10.50
2013,11,13,19,03,10.50
2013,11,13,19,04,10.50
2013,11,13,19,05,10.40
2013,11,13,19,06,10.40
2013,11,13,19,07,10.40
2013,11,13,19,08,10.40
2013,11,13,19,09,10.40
2013,11,13,19,10,10.40
2013,11,13,19,11,10.40
2013,11,13,19,12,10.40
2013,11,13,19,13,10.40
2013,11,13,19,14,10.40
2013,11,13,19,15,10.40
2013,11,13,19,16,10.40
2013,11,13,19,17,10.40
2013,11,13,19,18,10.40
2013,11,13,19,19,10.30
2013,11,13,19,20,10.30
2013,11,13,19,21,10.30
2013,11,13,19,22,10.30
2013,11,13,19,23,10.30
2013,11,13,19,24,10.30
2013,11,13,19,25,10.30
2013,11,13,19,26,10.30
2013,11,13,19,27,10.30
2013,11,13,19,28,10.30
2013,11,13,19,29,10.30
2013,11,13,19,30,10.30
2013,11,13,19,31,10.30
2013,11,13,19,32,10.30
2013,11,13,19,33,10.30
2013,11,13,19,34,10.20
2013,11,13,19,35,10.20
2013,11,13,19,36,10.20
2013,11,13,19,37,10.20
2013,11,13,19,38,10.20
2013,11,13,19,39,10.20
2013,11,13,19,40,10.20
2013,11,13,19,41,10.20
2013,11,13,19,42,10.20
2013,11,13,19,43,10.20
2013,11,13,19,44,10.20
2013,11,13,19,45,10.20
2013,11,13,19,46,10.10
2013,11,13,19,47,10.10
2013,11,13,19,48,10.10
2013,11,13,19,49,10.10
2013,11,13,19,50,10.10
2013,11,13,19,51,10.10
2013,11,13,19,52,10.10
2013,11,13,19,53,10.10
2013,11,13,19,54,10.10
2013,11,13,19,55,10.10
2013,11,13,19,56,10.10
2013,11,13,19,57,10.10
2013,11,13,19,58,10.10
2013,11,13,19,59,10.10
2013,11,13,20,00,10.10
2013,11,13,20,01,10.10
2013,11,13,20,02,10.10
2013,11,13,20,03,10.10
2013,11,13,20,04,10.10
2013,11,13,20,05,10.10
2013,11,13,20,06,10.10
2013,11,13,20,07,10.10
2013,11,13,20,08,10.10
2013,11,13,20,09,10.10
2013,11,13,20,10,10.10
2013,11,13,20,11,10.00
2013,11,13,20,12,10.00
2013,11,13,20,13,10.00
2013,11,13,20,14,10.00
2013,11,13,20,15,10.00
2013,11,13,20,16,10.00
2013,11,13,20,17,10.00
2013,11,13,20,18,10.00
2013,11,13,20,19,10.00
2013,11,13,20,20,10.00
2013,11,13,20,21,10.00
2013,11,13,20,22,10.00
2013,11,13,20,23,10.00
2013,11,13,20,24,10.00
2013,11,13,20,25,10.00
2013,11,13,20,26,10.00
2013,11,13,20,27,10.00
2013,11,13,20,28,10.00
2013,11,13,20,29,10.00
2013,11,13,20,30,10.00
2013,11,13,20,31,9.90
2013,11,13,20,32,9.90
2013,11,13,20,33,9.90
2013,11,13,20,34,9.90
2013,11,13,20,35,9.90
2013,11,13,20,36,9.90
2013,11,13,20,37,9.90
2013,11,13,20,38,9.90
2013,11,13,20,39,9.90
2013,11,13,20,40,9.90
2013,11,13,20,41,9.90
2013,11,13,20,42,9.90
2013,11,13,20,43,9.90
2013,11,13,20,44,9.90
2013,11,13,20,45,9.90
2013,11,13,20,46,9.90
2013,11,13,20,47,9.90
2013,11,13,20,48,9.90
2013,11,13,20,49,9.90
2013,11,13,20,50,9.90
2013,11,13,20,51,9.90
2013,11,13,20,52,9.90
2013,11,13,20,53,9.90
2013,11,13,20,54,9.90
2013,11,13,20,55,9.90
2013,11,13,20,56,9.90
2013,11,13,20,57,9.90
2013,11,13,20,58,9.90
2013,11,13,20,59,9.80
2013,11,13,21,00,9.80
2013,11,13,21,01,9.80
2013,11,13,21,02,9.80
2013,11,13,21,03,9.80
2013,11,13,21,04,9.80
2013,11,13,21,05,9.80
2013,11,13,21,06,9.80
2013,11,13,21,07,9.80
2013,11,13,21,08,9.80
2013,11,13,21,09,9.80
2013,11,13,21,10,9.80
2013,11,13,21,11,9.80
2013,11,13,21,12,9.80
2013,11,13,21,13,9.80
2013,11,13,21,14,9.80
2013,11,13,21,15,9.70
2013,11,13,21,16,9.70
2013,11,13,21,17,9.70
2013,11,13,21,18,9.70
2013,11,13,21,19,9.70
2013,11,13,21,20,9.70
2013,11,13,21,21,9.60
2013,11,13,21,22,9.60
2013,11,13,21,23,9.60
2013,11,13,21,24,9.50
2013,11,13,21,25,9.50
2013,11,13,21,26,9.50
2013,11,13,21,27,9.50
2013,11,13,21,28,9.40
2013,11,13,21,29,9.40
2013,11,13,21,30,9.40
2013,11,13,21,31,9.40
2013,11,13,21,32,9.30
2013,11,13,21,33,9.30
2013,11,13,21,34,9.30
2013,11,13,21,35,9.30
2013,11,13,21,36,9.30
2013,11,13,21,37,9.20
2013,11,13,21,38,9.20
2013,11,13,21,39,9.20
2013,11,13,21,40,9.20
2013,11,13,21,41,9.20
2013,11,13,21,42,9.20
2013,11,13,21,43,9.20
2013,11,13,21,44,9.20
2013,11,13,21,45,9.20
2013,11,13,21,46,9.20
2013,11,13,21,47,9.30
2013,11,13,21,48,9.30
2013,11,13,21,49,9.30
2013,11,13,21,50,9.30
2013,11,13,21,51,9.30
2013,11,13,21,52,9.30
2013,11,13,21,53,9.30
2013,11,13,21,54,9.30
2013,11,13,21,55,9.20
2013,11,13,21,56,9.20
2013,11,13,21,57,9.20
2013,11,13,21,58,9.20
2013,11,13,21,59,9.20
2013,11,13,22,00,9.20
2013,11,13,22,01,9.20
2013,11,13,22,02,9.20
2013,11,13,22,03,9.20
2013,11,13,22,04,9.20
2013,11,13,22,05,9.20
2013,11,13,22,06,9.20
2013,11,13,22,07,9.20
2013,11,13,22,08,9.20
2013,11,13,22,09,9.20
2013,11,13,22,10,9.20
2013,11,13,22,11,9.20
2013,11,13,22,12,9.20
2013,11,13,22,13,9.20
2013,11,13,22,14,9.20
2013,11,13,22,15,9.20
2013,11,13,22,16,9.20
2013,11,13,22,17,9.20
2013,11,13,22,18,9.20
2013,11,13,22,19,9.20
2013,11,13,22,20,9.20
2013,11,13,22,21,9.20
2013,11,13,22,22,9.20
